| time (UTC) | temp C | wind direction | speed KPH | gust KPH | rain 1hr cm | rain 24hr cm | rain mn cm | humidity % | barometer mb |
| 20260505034552 | 20 | 0 | 0.0 | 4.8 | 0.00 | 0.00 | 0.00 | 74 | 1015.4 |
| 20260505034018 | 20 | 0 | 1.6 | 6.4 | 0.00 | 0.00 | 0.00 | 74 | 1015.5 |
| 20260505033518 | 20 | 75 | 1.6 | 6.4 | 0.00 | 0.00 | 0.00 | 73 | 1015.5 |
| 20260505033043 | 20 | 83 | 1.6 | 6.4 | 0.00 | 0.00 | 0.00 | 73 | 1015.5 |
| 20260505032517 | 20 | 71 | 3.2 | 6.4 | 0.00 | 0.00 | 0.00 | 73 | 1015.5 |
| 20260505032018 | 20 | 69 | 3.2 | 6.4 | 0.00 | 0.00 | 0.00 | 72 | 1015.5 |
| 20260505031538 | 20 | 75 | 3.2 | 9.7 | 0.00 | 0.00 | 0.00 | 72 | 1015.5 |
| 20260505031017 | 20 | 99 | 3.2 | 11.3 | 0.00 | 0.00 | 0.00 | 72 | 1015.6 |
| 20260505030517 | 20 | 43 | 6.4 | 11.3 | 0.00 | 0.00 | 0.00 | 71 | 1015.6 |
| 20260505030046 | 20 | 81 | 4.8 | 11.3 | 0.00 | 0.00 | 0.00 | 71 | 1015.7 |
| 20260505025521 | 21 | 61 | 6.4 | 11.3 | 0.00 | 0.00 | 0.00 | 71 | 1015.6 |
| 20260505025017 | 21 | 98 | 6.4 | 11.3 | 0.00 | 0.00 | 0.00 | 71 | 1015.6 |
| 20260505024536 | 21 | 86 | 4.8 | 14.5 | 0.00 | 0.00 | 0.00 | 71 | 1015.6 |
| 20260505024021 | 21 | 78 | 4.8 | 14.5 | 0.00 | 0.00 | 0.00 | 71 | 1015.4 |
| 20260505023521 | 21 | 82 | 6.4 | 16.1 | 0.00 | 0.00 | 0.00 | 71 | 1015.4 |
| 20260505023046 | 21 | 78 | 6.4 | 16.1 | 0.00 | 0.00 | 0.00 | 70 | 1015.4 |
| 20260505022521 | 21 | 138 | 8.0 | 14.5 | 0.00 | 0.00 | 0.00 | 70 | 1015.4 |
| 20260505022021 | 21 | 92 | 4.8 | 14.5 | 0.00 | 0.00 | 0.00 | 70 | 1015.4 |
| 20260505021541 | 21 | 121 | 6.4 | 14.5 | 0.00 | 0.00 | 0.00 | 70 | 1015.4 |
| 20260505021024 | 21 | 74 | 6.4 | 12.9 | 0.00 | 0.00 | 0.00 | 70 | 1015.3 |
| 20260505020521 | 21 | 80 | 6.4 | 12.9 | 0.00 | 0.00 | 0.00 | 70 | 1015.3 |
| 20260505020052 | 21 | 80 | 6.4 | 12.9 | 0.00 | 0.00 | 0.00 | 70 | 1015.2 |
| 20260505015522 | 21 | 82 | 4.8 | 11.3 | 0.00 | 0.00 | 0.00 | 69 | 1015.2 |
| 20260505015018 | 21 | 86 | 4.8 | 12.9 | 0.00 | 0.00 | 0.00 | 69 | 1015.1 |
| 20260505014542 | 21 | 68 | 6.4 | 12.9 | 0.00 | 0.00 | 0.00 | 69 | 1015.1 |
| 20260505014021 | 21 | 92 | 4.8 | 12.9 | 0.00 | 0.00 | 0.00 | 69 | 1015.0 |
| 20260505013525 | 21 | 92 | 4.8 | 14.5 | 0.00 | 0.00 | 0.00 | 68 | 1014.9 |
| 20260505013041 | 21 | 94 | 8.0 | 14.5 | 0.00 | 0.00 | 0.00 | 68 | 1014.9 |
| 20260505012522 | 21 | 98 | 6.4 | 12.9 | 0.00 | 0.00 | 0.00 | 68 | 1014.9 |
| 20260505012021 | 21 | 86 | 4.8 | 11.3 | 0.00 | 0.00 | 0.00 | 68 | 1014.7 |
| 20260505011536 | 21 | 65 | 4.8 | 9.7 | 0.00 | 0.00 | 0.00 | 67 | 1014.6 |
| 20260505011021 | 21 | 85 | 4.8 | 8.0 | 0.00 | 0.00 | 0.00 | 67 | 1014.6 |
| 20260505010521 | 22 | 82 | 3.2 | 9.7 | 0.00 | 0.00 | 0.00 | 67 | 1014.5 |
| 20260505010104 | 22 | 93 | 4.8 | 9.7 | 0.00 | 0.00 | 0.00 | 67 | 1014.4 |
| 20260505005521 | 22 | 74 | 4.8 | 12.9 | 0.00 | 0.00 | 0.00 | 66 | 1014.3 |
| 20260505005021 | 22 | 98 | 4.8 | 12.9 | 0.00 | 0.00 | 0.00 | 66 | 1014.3 |
| 20260505004556 | 22 | 107 | 4.8 | 12.9 | 0.00 | 0.00 | 0.00 | 65 | 1014.1 |
| 20260505004021 | 22 | 109 | 6.4 | 16.1 | 0.00 | 0.00 | 0.00 | 65 | 1014.2 |
| 20260505003525 | 22 | 83 | 6.4 | 16.1 | 0.00 | 0.00 | 0.00 | 65 | 1014.1 |
| 20260505003042 | 22 | 86 | 6.4 | 16.1 | 0.00 | 0.00 | 0.00 | 64 | 1014.2 |
| 20260505002521 | 22 | 105 | 4.8 | 9.7 | 0.00 | 0.00 | 0.00 | 63 | 1014.2 |
| 20260505002020 | 23 | 80 | 4.8 | 11.3 | 0.00 | 0.00 | 0.00 | 63 | 1014.2 |
| 20260505001541 | 23 | 79 | 4.8 | 11.3 | 0.00 | 0.00 | 0.00 | 62 | 1014.2 |
| 20260505001017 | 23 | 102 | 4.8 | 12.9 | 0.00 | 0.00 | 0.00 | 62 | 1014.2 |
| 20260505000519 | 23 | 90 | 4.8 | 12.9 | 0.00 | 0.00 | 0.00 | 61 | 1013.9 |
| 20260505000038 | 23 | 121 | 4.8 | 12.9 | 0.00 | 0.00 | 0.00 | 61 | 1013.9 |
| 20260504235517 | 23 | 123 | 4.8 | 16.1 | 0.00 | 0.00 | 0.00 | 61 | 1013.9 |
| 20260504235021 | 23 | 88 | 6.4 | 17.7 | 0.00 | 0.00 | 0.00 | 60 | 1013.8 |
| 20260504234537 | 23 | 84 | 8.0 | 19.3 | 0.00 | 0.00 | 0.00 | 59 | 1013.7 |
| 20260504234021 | 24 | 69 | 8.0 | 20.9 | 0.00 | 0.00 | 0.00 | 59 | 1013.8 |
| 20260504233521 | 24 | 82 | 12.9 | 20.9 | 0.00 | 0.00 | 0.00 | 58 | 1013.8 |
| 20260504233035 | 24 | 78 | 11.3 | 19.3 | 0.00 | 0.00 | 0.00 | 58 | 1013.7 |
| 20260504232521 | 25 | 104 | 9.7 | 20.9 | 0.00 | 0.00 | 0.00 | 56 | 1013.6 |
| 20260504232020 | 25 | 104 | 9.7 | 22.5 | 0.00 | 0.00 | 0.00 | 56 | 1013.6 |
| 20260504231558 | 25 | 116 | 14.5 | 22.5 | 0.00 | 0.00 | 0.00 | 54 | 1013.5 |
| 20260504231020 | 25 | 94 | 9.7 | 20.9 | 0.00 | 0.00 | 0.00 | 53 | 1013.6 |
| 20260504230524 | 25 | 87 | 11.3 | 22.5 | 0.00 | 0.00 | 0.00 | 53 | 1013.5 |
| 20260504230039 | 26 | 67 | 11.3 | 24.1 | 0.00 | 0.00 | 0.00 | 53 | 1013.6 |
| 20260504225521 | 26 | 58 | 12.9 | 24.1 | 0.00 | 0.00 | 0.00 | 53 | 1013.5 |
| 20260504225021 | 26 | 80 | 12.9 | 24.1 | 0.00 | 0.00 | 0.00 | 52 | 1013.6 |
| 20260504224541 | 26 | 116 | 9.7 | 20.9 | 0.00 | 0.00 | 0.00 | 51 | 1013.5 |
| 20260504224021 | 26 | 94 | 9.7 | 20.9 | 0.00 | 0.00 | 0.00 | 51 | 1013.5 |
| 20260504223520 | 26 | 84 | 9.7 | 20.9 | 0.00 | 0.00 | 0.00 | 51 | 1013.6 |
| 20260504223037 | 26 | 86 | 14.5 | 20.9 | 0.00 | 0.00 | 0.00 | 51 | 1013.6 |
| 20260504222521 | 26 | 86 | 11.3 | 20.9 | 0.00 | 0.00 | 0.00 | 50 | 1013.7 |
| 20260504222017 | 26 | 120 | 14.5 | 20.9 | 0.00 | 0.00 | 0.00 | 50 | 1013.7 |
| 20260504221550 | 26 | 82 | 9.7 | 22.5 | 0.00 | 0.00 | 0.00 | 50 | 1013.6 |
| 20260504221017 | 27 | 84 | 14.5 | 22.5 | 0.00 | 0.00 | 0.00 | 49 | 1013.6 |
| 20260504220517 | 27 | 119 | 12.9 | 22.5 | 0.00 | 0.00 | 0.00 | 49 | 1013.6 |
| 20260504220043 | 27 | 117 | 12.9 | 19.3 | 0.00 | 0.00 | 0.00 | 48 | 1013.5 |
| 20260504215517 | 27 | 80 | 12.9 | 20.9 | 0.00 | 0.00 | 0.00 | 48 | 1013.4 |
| 20260504215017 | 27 | 128 | 11.3 | 25.7 | 0.00 | 0.00 | 0.00 | 48 | 1013.5 |
| 20260504214538 | 27 | 92 | 16.1 | 25.7 | 0.00 | 0.00 | 0.00 | 48 | 1013.5 |
| 20260504214018 | 27 | 83 | 14.5 | 24.1 | 0.00 | 0.00 | 0.00 | 48 | 1013.5 |
| 20260504213517 | 27 | 92 | 12.9 | 29.0 | 0.00 | 0.00 | 0.00 | 47 | 1013.6 |
| 20260504213039 | 27 | 81 | 12.9 | 29.0 | 0.00 | 0.00 | 0.00 | 48 | 1013.6 |
| 20260504212517 | 27 | 55 | 17.7 | 29.0 | 0.00 | 0.00 | 0.00 | 47 | 1013.6 |
| 20260504212016 | 27 | 80 | 12.9 | 25.7 | 0.00 | 0.00 | 0.00 | 45 | 1013.5 |
| 20260504211535 | 28 | 73 | 14.5 | 25.7 | 0.00 | 0.00 | 0.00 | 45 | 1013.5 |
| 20260504211016 | 27 | 42 | 11.3 | 27.4 | 0.00 | 0.00 | 0.00 | 45 | 1013.6 |
| 20260504210516 | 28 | 51 | 17.7 | 27.4 | 0.00 | 0.00 | 0.00 | 44 | 1013.6 |
| 20260504210045 | 28 | 116 | 9.7 | 25.7 | 0.00 | 0.00 | 0.00 | 44 | 1013.6 |
| 20260504205516 | 28 | 80 | 11.3 | 20.9 | 0.00 | 0.00 | 0.00 | 44 | 1013.6 |
| 20260504205022 | 28 | 78 | 9.7 | 17.7 | 0.00 | 0.00 | 0.00 | 43 | 1013.7 |
| 20260504204537 | 27 | 77 | 9.7 | 17.7 | 0.00 | 0.00 | 0.00 | 44 | 1013.6 |
| 20260504204017 | 27 | 85 | 8.0 | 16.1 | 0.00 | 0.00 | 0.00 | 43 | 1013.6 |
| 20260504203517 | 28 | 50 | 9.7 | 25.7 | 0.00 | 0.00 | 0.00 | 42 | 1013.7 |
| 20260504203036 | 28 | 77 | 8.0 | 25.7 | 0.00 | 0.00 | 0.00 | 40 | 1013.7 |
| 20260504202517 | 28 | 63 | 8.0 | 14.5 | 0.00 | 0.00 | 0.00 | 41 | 1013.6 |
| 20260504202016 | 27 | 10 | 6.4 | 17.7 | 0.00 | 0.00 | 0.00 | 40 | 1013.6 |
| 20260504201535 | 28 | 79 | 8.0 | 17.7 | 0.00 | 0.00 | 0.00 | 40 | 1013.7 |
| 20260504201016 | 28 | 17 | 11.3 | 17.7 | 0.00 | 0.00 | 0.00 | 38 | 1013.8 |
| 20260504200517 | 28 | 88 | 6.4 | 17.7 | 0.00 | 0.00 | 0.00 | 37 | 1013.9 |
| 20260504200032 | 28 | 90 | 8.0 | 19.3 | 0.00 | 0.00 | 0.00 | 38 | 1013.9 |
| 20260504195516 | 28 | 65 | 8.0 | 19.3 | 0.00 | 0.00 | 0.00 | 36 | 1014.0 |
| 20260504195016 | 29 | 76 | 11.3 | 20.9 | 0.00 | 0.00 | 0.00 | 36 | 1014.0 |
| 20260504194534 | 28 | 0 | 8.0 | 20.9 | 0.00 | 0.00 | 0.00 | 34 | 1014.1 |
| 20260504194016 | 28 | 84 | 8.0 | 19.3 | 0.00 | 0.00 | 0.00 | 35 | 1014.1 |
| 20260504193517 | 29 | 107 | 6.4 | 14.5 | 0.00 | 0.00 | 0.00 | 34 | 1014.3 |
| 20260504193046 | 28 | 0 | 1.6 | 16.1 | 0.00 | 0.00 | 0.00 | 33 | 1014.3 |
| 20260504192517 | 28 | 0 | 8.0 | 16.1 | 0.00 | 0.00 | 0.00 | 35 | 1014.4 |
| 20260504192021 | 28 | 92 | 9.7 | 16.1 | 0.00 | 0.00 | 0.00 | 34 | 1014.4 |
| 20260504191603 | 28 | 69 | 8.0 | 19.3 | 0.00 | 0.00 | 0.00 | 35 | 1014.5 |
| 20260504191016 | 28 | 23 | 4.8 | 19.3 | 0.00 | 0.00 | 0.00 | 36 | 1014.5 |
| 20260504190516 | 28 | 61 | 11.3 | 19.3 | 0.00 | 0.00 | 0.00 | 35 | 1014.7 |
| 20260504190039 | 28 | 70 | 8.0 | 16.1 | 0.00 | 0.00 | 0.00 | 35 | 1014.7 |
| 20260504185516 | 28 | 64 | 4.8 | 16.1 | 0.00 | 0.00 | 0.00 | 35 | 1014.9 |
| 20260504185016 | 28 | 77 | 8.0 | 16.1 | 0.00 | 0.00 | 0.00 | 35 | 1015.0 |
| 20260504184544 | 28 | 87 | 9.7 | 20.9 | 0.00 | 0.00 | 0.00 | 34 | 1015.1 |
| 20260504184020 | 28 | 108 | 8.0 | 20.9 | 0.00 | 0.00 | 0.00 | 34 | 1015.1 |
| 20260504183517 | 28 | 80 | 12.9 | 25.7 | 0.00 | 0.00 | 0.00 | 34 | 1015.3 |
| 20260504183032 | 27 | 59 | 8.0 | 25.7 | 0.00 | 0.00 | 0.00 | 34 | 1015.3 |
| 20260504182522 | 28 | 77 | 9.7 | 25.7 | 0.00 | 0.00 | 0.00 | 36 | 1015.4 |
| 20260504182017 | 28 | 44 | 8.0 | 16.1 | 0.00 | 0.00 | 0.00 | 37 | 1015.4 |
| 20260504181540 | 27 | 117 | 1.6 | 12.9 | 0.00 | 0.00 | 0.00 | 35 | 1015.6 |
| 20260504181016 | 27 | 96 | 6.4 | 19.3 | 0.00 | 0.00 | 0.00 | 35 | 1015.6 |
| 20260504180517 | 27 | 97 | 9.7 | 19.3 | 0.00 | 0.00 | 0.00 | 34 | 1015.6 |
| 20260504180038 | 28 | 126 | 8.0 | 17.7 | 0.00 | 0.00 | 0.00 | 33 | 1015.6 |
| 20260504175516 | 27 | 98 | 8.0 | 14.5 | 0.00 | 0.00 | 0.00 | 35 | 1015.6 |
| 20260504175019 | 27 | 81 | 6.4 | 16.1 | 0.00 | 0.00 | 0.00 | 34 | 1015.6 |
| 20260504174536 | 27 | 69 | 4.8 | 17.7 | 0.00 | 0.00 | 0.00 | 37 | 1015.8 |
| 20260504174016 | 27 | 42 | 3.2 | 19.3 | 0.00 | 0.00 | 0.00 | 37 | 1015.8 |
| 20260504173517 | 28 | 30 | 9.7 | 19.3 | 0.00 | 0.00 | 0.00 | 36 | 1015.9 |
| 20260504173035 | 28 | 119 | 4.8 | 27.4 | 0.00 | 0.00 | 0.00 | 36 | 1015.8 |
| 20260504172516 | 27 | 101 | 8.0 | 27.4 | 0.00 | 0.00 | 0.00 | 38 | 1015.8 |
| 20260504172017 | 27 | 88 | 3.2 | 19.3 | 0.00 | 0.00 | 0.00 | 36 | 1016.0 |
| 20260504171543 | 26 | 22 | 4.8 | 19.3 | 0.00 | 0.00 | 0.00 | 37 | 1016.1 |
| 20260504171017 | 27 | 96 | 4.8 | 19.3 | 0.00 | 0.00 | 0.00 | 35 | 1016.1 |
| 20260504170518 | 27 | 89 | 8.0 | 19.3 | 0.00 | 0.00 | 0.00 | 37 | 1016.2 |
| 20260504151016 | 25 | 75 | 9.7 | 27.4 | 0.00 | 0.00 | 0.00 | 46 | 1017.0 |
| 20260504150519 | 25 | 55 | 11.3 | 27.4 | 0.00 | 0.00 | 0.00 | 45 | 1017.1 |
| 20260504141024 | 23 | 27 | 11.3 | 27.4 | 0.00 | 0.00 | 0.00 | 56 | 1016.8 |
| 20260504140516 | 23 | 34 | 11.3 | 27.4 | 0.00 | 0.00 | 0.00 | 56 | 1016.7 |
| 20260504130516 | 21 | 82 | 6.4 | 16.1 | 0.00 | 0.00 | 0.00 | 73 | 1016.5 |
| 20260504110515 | 14 | 0 | 0.0 | 0.0 | 0.00 | 0.00 | 0.00 | 93 | 1015.7 |
| 20260504100515 | 14 | 0 | 0.0 | 0.0 | 0.00 | 0.00 | 0.00 | 92 | 1015.3 |
| 20260504081540 | 14 | 0 | 0.0 | 0.0 | 0.00 | 0.00 | 0.00 | 92 | 1015.4 |
| 20260504081021 | 14 | 0 | 0.0 | 0.0 | 0.00 | 0.00 | 0.00 | 92 | 1015.4 |
| 20260504080518 | 14 | 0 | 0.0 | 0.0 | 0.00 | 0.00 | 0.00 | 92 | 1015.5 |
| 20260504050518 | 16 | 0 | 0.0 | 0.0 | 0.00 | 0.00 | 0.00 | 85 | 1016.5 |
| 20260504045517 | 16 | 0 | 0.0 | 0.0 | 0.00 | 0.00 | 0.00 | 84 | 1016.5 |
| 20260504045017 | 17 | 0 | 0.0 | 0.0 | 0.00 | 0.00 | 0.00 | 84 | 1016.8 |
| 20260504044537 | 17 | 0 | 0.0 | 0.0 | 0.00 | 0.00 | 0.00 | 83 | 1016.8 |
| 20260504044017 | 17 | 0 | 0.0 | 0.0 | 0.00 | 0.00 | 0.00 | 82 | 1016.8 |
| 20260504043526 | 17 | 0 | 0.0 | 0.0 | 0.00 | 0.00 | 0.00 | 82 | 1016.8 |
| 20260504043039 | 17 | 0 | 0.0 | 0.0 | 0.00 | 0.00 | 0.00 | 81 | 1017.0 |
| 20260504042516 | 17 | 0 | 0.0 | 0.0 | 0.00 | 0.00 | 0.00 | 79 | 1017.0 |
| 20260504042017 | 18 | 0 | 0.0 | 0.0 | 0.00 | 0.00 | 0.00 | 78 | 1016.9 |
| 20260504041534 | 18 | 0 | 0.0 | 0.0 | 0.00 | 0.00 | 0.00 | 77 | 1016.9 |
| 20260504041017 | 18 | 0 | 0.0 | 3.2 | 0.00 | 0.00 | 0.00 | 76 | 1016.7 |
| 20260504040518 | 18 | 0 | 0.0 | 3.2 | 0.00 | 0.00 | 0.00 | 76 | 1017.0 |
| 20260504040035 | 18 | 80 | 1.6 | 4.8 | 0.00 | 0.00 | 0.00 | 76 | 1016.9 |
| 20260504035521 | 18 | 81 | 0.0 | 6.4 | 0.00 | 0.00 | 0.00 | 76 | 1016.9 |